Location: Bégole
(43.1574°N, 0.3291°E)
Time: 01:30:54
(UTC+00:00)

Cosmos 2227 Rocket - Pass Details

Date: 28 January 2023
Orbit: 839 x 844 km, 71.0° (Epoch: 27 March)

Event Time Altitude Azimuth Distance (km) Brightness Sun altitude
Rises 18:06:53 0° 327° (NNW) 3,411 5.6 -11.4°
Reaches altitude 10° 18:09:30 10° 320° (NW) 2,472 5.0 -11.9°
Maximum altitude 18:14:38 37° 255° (WSW) 1,294 3.9 -12.8°
Drops below altitude 10° 18:19:45 10° 189° (S) 2,454 4.9 -13.7°
Sets 18:22:20 0° 182° (S) 3,383 5.5 -14.2°
